This is the latest recevied weather packets stored in our database for station/object PU5FJO-13. If no packets are shown the sender has not sent any weather packets the latest 10 day(s).
| Time | Temp. | Humidity | Pressure | Rain* | Wind** | Luminosity | Snow |
|---|---|---|---|---|---|---|---|
| 1777352166 | 15.56° C | 68% | 1018.4 hPa | - | - | - | - |
| 1777351566 | 15.56° C | 68% | 1018.3 hPa | - | - | - | - |
| 1777350966 | 15.56° C | 68% | 1018.5 hPa | - | - | - | - |
| 1777350366 | 15.56° C | 68% | 1018.5 hPa | - | - | - | - |
| 1777349766 | 16.67° C | 65% | 1018.5 hPa | - | - | - | - |
| 1777349166 | 16.11° C | 67% | 1018.4 hPa | - | - | - | - |
| 1777348566 | 16.11° C | 68% | 1018.6 hPa | - | - | - | - |
| 1777347966 | 16.11° C | 67% | 1018.5 hPa | - | - | - | - |
| 1777347366 | 16.67° C | 68% | 1018.5 hPa | - | - | - | - |
| 1777346766 | 16.67° C | 65% | 1018.4 hPa | - | - | - | - |
| 1777346166 | 16.67° C | 65% | 1018.6 hPa | - | - | - | - |
| 1777345566 | 16.67° C | 65% | 1018.5 hPa | - | - | - | - |
| 1777344966 | 16.67° C | 67% | 1018.4 hPa | - | - | - | - |
| 1777344366 | 17.22° C | 64% | 1018.6 hPa | - | - | - | - |
| 1777343766 | 16.67° C | 66% | 1018.6 hPa | - | - | - | - |
| 1777343166 | 17.22° C | 68% | 1018.7 hPa | - | - | - | - |
| 1777342567 | 17.22° C | 71% | 1018.7 hPa | - | - | - | - |
| 1777341966 | 17.22° C | 70% | 1018.8 hPa | - | - | - | - |
| 1777341366 | 17.22° C | 71% | 1018.8 hPa | - | - | - | - |
| 1777340766 | 17.78° C | 72% | 1018.6 hPa | - | - | - | - |
| 1777340166 | 17.78° C | 74% | 1018.6 hPa | - | - | - | - |
| 1777339566 | 17.78° C | 74% | 1018.7 hPa | - | - | - | - |
| 1777338966 | 18.33° C | 73% | 1018.7 hPa | - | - | - | - |
| 1777338366 | 18.33° C | 74% | 1018.5 hPa | - | - | - | - |
| 1777337766 | 18.89° C | 73% | 1018.4 hPa | - | - | - | - |
* Rain since midnight (hover to see other rain measurements)
** Current wind speed in m/s (hover to see current wind gust speed)